STARLINK-35565

Last updated on Mon Dec 15 2025 00:02:11 GMT+0000 (Coordinated Universal Time)

1 66803U 25278N 25348.25003472 -.01281907 00000+0 -66106-2 0 9992 2 66803 42.9971 242.7751 0001904 277.5970 120.9283 15.82923737 3281
UTC large
Height (km)
Speed (km/s)
/
Latitude / Longitude
Inclination (degrees)
Orbital Period (minutes)
Azimuth
Elevation
Range (km)
Doppler Factor

Next 0 passes for location: London (51.5072 / 0.1276)

Sorry there are no passes over London.